Location: Sawmill Trailhead
(33.5800°N, 116.4497°W)
Time: 01:03:30
(UTC-07:00)

Amateur Radio Satellites - All Passes

Search period start: 26 April 2017 00:33
Search period end: 27 April 2017 00:33
Location: Sawmill Trailhead, 33.5800°N, 116.4497°W

Satellite Date Start Highest point End Downlink Frequencies (MHz)
Time Altitude Azimuth
BEESAT 2 26 Apr 00:34:56 00:38:45 40° 246° (WSW) 00:42:31 435.950
NANOSAT C BR1 26 Apr 00:38:33 00:42:45 89° 270° (W) 00:46:55 145.865
BUGSAT 1 26 Apr 00:39:38 00:42:43 21° 96° (E) 00:45:47 437.445
BEESAT 3 26 Apr 00:39:56 00:41:37 12° 252° (WSW) 00:43:18 437.485
SPROUT 26 Apr 00:47:51 00:52:00 49° 260° (W) 00:56:09 437.525
AIST 2D 26 Apr 00:49:46 00:52:26 20° 288° (WNW) 00:55:06 435.315
EO-79 26 Apr 01:06:06 01:09:56 36° 287° (WNW) 01:13:46 145.935-145.965
DUCHIFAT 1 26 Apr 01:09:04 01:12:58 41° 287° (WNW) 01:16:53 145.980
50 SAT 26 Apr 01:09:27 01:12:39 34° 261° (W) 01:15:53 437.505
VELOX 1 26 Apr 01:15:39 01:19:10 23° 264° (W) 01:22:42 145.980
Gurwin Techsat 1B 26 Apr 01:28:05 01:30:56 14° 93° (E) 01:33:45 435.225
Oscar 19 26 Apr 01:31:46 01:36:17 29° 97° (E) 01:40:45 437.125/150
UKube-1 26 Apr 01:38:02 01:42:13 49° 260° (W) 01:46:26 .
POLYITAN 1 26 Apr 01:46:47 01:48:41 13° 293° (WNW) 01:50:35 437.675
PCSat 26 Apr 01:54:28 01:59:34 45° 110° (ESE) 02:04:43 145.827
DX 1 26 Apr 02:11:24 02:13:48 14° 266° (W) 02:16:11 434.975-435.025
BEESAT 26 Apr 02:12:37 02:16:32 26° 69° (ENE) 02:20:25 436.000
BUGSAT 1 26 Apr 02:14:50 02:17:57 22° 289° (WNW) 02:21:03 437.445
MOZHAYETS 4 26 Apr 02:15:48 02:17:08 11° 65° (ENE) 02:18:29
ITUPSAT 1 26 Apr 02:51:45 02:56:28 69° 75° (ENE) 03:01:12 437.325
ITAMSAT 1 26 Apr 02:57:13 03:00:02 15° 93° (E) 03:02:51 435.822/435.867
Gurwin Techsat 1B 26 Apr 03:05:57 03:11:09 55° 287° (WNW) 03:16:18 435.225
Oscar 19 26 Apr 03:11:05 03:15:26 28° 291° (WNW) 03:19:47 437.125/150
NO-84 26 Apr 03:22:43 03:25:26 40° 45° (NE) 03:28:08 435.350 FM
PCSat 26 Apr 03:39:01 03:43:09 22° 306° (NW) 03:47:18 145.827
MOZHAYETS 4 26 Apr 03:49:16 03:53:44 58° 260° (W) 03:58:14
BEESAT 26 Apr 03:50:13 03:54:10 26° 263° (W) 03:58:08 436.000
YUBILEINY 26 Apr 03:52:27 04:00:22 41° 88° (E) 04:08:16 435.215
AO-7 26 Apr 04:00:12 04:08:19 55° 103° (ESE) 04:16:25 .
KKS-1 26 Apr 04:07:00 04:11:02 34° 72° (ENE) 04:15:05 437.445
ITAMSAT 1 26 Apr 04:34:44 04:39:45 53° 287° (WNW) 04:44:45 435.822/435.867
CUBESAT XI-V 26 Apr 04:38:08 04:42:45 73° 76° (ENE) 04:47:24 437.345
STARS 26 Apr 04:40:44 04:44:42 34° 72° (ENE) 04:48:41 437.465
KKS-1 26 Apr 05:44:40 05:47:38 17° 265° (W) 05:50:36 437.445
LilacSat-2 26 Apr 05:47:08 05:47:50 10° 93° (E) 05:48:33 437.200
XW-2C 26 Apr 05:48:55 05:49:29 10° 93° (E) 05:50:02 145.795 - 145.815
YUBILEINY 26 Apr 05:49:17 05:57:05 36° 284° (WNW) 06:04:56 435.215
AO-7 26 Apr 05:53:44 06:00:35 30° 299° (WNW) 06:07:28 .
M-CUBED/EXP-1 PRIME 26 Apr 05:59:18 06:01:06 12° 60° (ENE) 06:02:53 437.505
DOVE 4 26 Apr 06:12:33 06:16:51 40° 98° (E) 06:20:53 437.250
XW-2F 26 Apr 06:12:40 06:15:38 21° 96° (E) 06:18:36 145.980 - 146.000
STARS 26 Apr 06:18:12 06:21:05 17° 265° (W) 06:23:58 437.465
RS-15 26 Apr 06:20:57 06:31:36 40° 106° (ESE) 06:42:35 29.354- 29.394
SO-50 26 Apr 06:23:16 06:27:54 79° 117° (ESE) 06:32:30 436.795
NUDT-PHONESAT 26 Apr 06:25:50 06:28:58 25° 97° (E) 06:32:05 437.300
STRAND 1 26 Apr 06:36:36 06:40:46 26° 69° (ENE) 06:44:56 437.568
Tancredo 1 26 Apr 06:58:43 07:00:35 15° 128° (SE) 07:02:27 437.200
XW-2D 26 Apr 07:01:14 07:05:02 72° 283° (WNW) 07:08:50 145.860 - 145.880
XW-2B 26 Apr 07:08:11 07:11:57 59° 283° (WNW) 07:15:43 145.730 - 145.750
ISS 26 Apr 07:15:16 07:17:35 18° 128° (SE) 07:19:54 437.550
CUTE-I 26 Apr 07:17:22 07:22:41 77° 285° (WNW) 07:27:58 437.470
LilacSat-2 26 Apr 07:18:39 07:22:15 40° 285° (WNW) 07:25:52 437.200
KAITUO 1B 26 Apr 07:19:11 07:22:51 53° 285° (WNW) 07:26:32 145.475/437.950
XW-2C 26 Apr 07:20:14 07:23:48 39° 285° (WNW) 07:27:23 145.795 - 145.815
M-CUBED/EXP-1 PRIME 26 Apr 07:30:22 07:34:53 65° 255° (WSW) 07:39:33 437.505
HO-68 26 Apr 07:34:24 07:40:55 36° 98° (E) 07:47:25 435.675
XW-2F 26 Apr 07:46:51 07:49:36 19° 289° (WNW) 07:52:23 145.980 - 146.000
CUTE 1.7 + AOD 2 26 Apr 07:50:02 07:54:08 42° 99° (E) 07:58:12 437.475
DOVE 4 26 Apr 07:51:34 07:54:05 15° 294° (WNW) 07:56:32 437.250
NUDT-PHONESAT 26 Apr 08:00:20 08:02:38 16° 290° (WNW) 08:04:57 437.300
SO-50 26 Apr 08:07:28 08:08:53 11° 314° (NW) 08:10:17 436.795
SEEDS 26 Apr 08:11:01 08:15:09 48° 100° (E) 08:19:15 437.485
STRAND 1 26 Apr 08:15:20 08:19:46 30° 263° (W) 08:24:13 437.568
XW-2A 26 Apr 08:17:03 08:20:23 68° 284° (WNW) 08:23:43 145.665 - 145.685
Oscar 11 26 Apr 08:25:28 08:25:42 10° 92° (E) 08:25:55 .
RS-15 26 Apr 08:31:56 08:43:38 56° 306° (NW) 08:55:45 29.354- 29.394
Tancredo 1 26 Apr 08:33:25 08:36:15 33° 321° (NW) 08:39:07 437.200
UWE-3 26 Apr 08:38:07 08:42:04 39° 99° (E) 08:46:04 435.000/436.395/437.385
PRISM 26 Apr 08:42:27 08:44:30 14° 67° (ENE) 08:46:34 437.425
CUBEBUG 2 26 Apr 08:50:06 08:54:16 81° 283° (WNW) 08:58:31 437.445
ISS 26 Apr 08:50:56 08:53:52 31° 322° (NW) 08:56:48 437.550
UNISAT 6 26 Apr 09:06:05 09:08:44 16° 69° (ENE) 09:11:23 437.425
O/OREOS (USA 219) 26 Apr 09:15:59 09:18:26 14° 99° (E) 09:20:54 437.305
AAUSAT CUBESAT 2 26 Apr 09:20:25 09:24:30 50° 285° (WNW) 09:28:31 437.432
HO-68 26 Apr 09:22:05 09:28:31 37° 293° (WNW) 09:34:58 435.675
CUTE 1.7 + AOD 2 26 Apr 09:27:28 09:29:33 13° 292° (WNW) 09:31:37 437.475
ZACube-1 26 Apr 09:34:26 09:38:39 75° 283° (WNW) 09:42:58 437.345
AO-73 26 Apr 09:41:35 09:45:47 69° 284° (WNW) 09:50:05 145.935
SEEDS 26 Apr 09:48:48 09:50:21 12° 293° (WNW) 09:51:54 437.485
FO-29 26 Apr 09:51:09 09:57:21 47° 73° (ENE) 10:02:53 435.910
Oscar 11 26 Apr 09:57:50 10:02:04 53° 285° (WNW) 10:06:18 .
DELFI C3 26 Apr 10:08:20 10:12:14 50° 99° (E) 10:16:06 145.870
PRISM 26 Apr 10:15:30 10:19:22 39° 261° (W) 10:23:19 437.425
UWE-3 26 Apr 10:16:00 10:18:10 14° 292° (WNW) 10:20:21 435.000/436.395/437.385
TIGRISAT 26 Apr 10:19:33 10:23:58 74° 257° (WSW) 10:28:18 435.000
UNISAT 6 26 Apr 10:41:03 10:45:08 36° 261° (W) 10:49:10 437.425
PCSat 26 Apr 10:47:20 10:50:50 17° 51° (NE) 10:54:18 145.827
RS-15 26 Apr 10:52:21 10:59:51 18° 334° (NNW) 11:07:25 29.354- 29.394
O/OREOS (USA 219) 26 Apr 10:53:04 10:57:24 42° 293° (WNW) 11:01:47 437.305
OBJECT BX 26 Apr 10:55:24 10:58:55 45° 285° (WNW) 11:02:25 145.990 - 145.960
POLYITAN 1 26 Apr 10:58:37 11:01:38 19° 70° (ENE) 11:04:39 437.675
QB50P2 26 Apr 11:04:43 11:08:09 25° 71° (ENE) 11:11:36 145.880/145.840
ESTCUBE 1 26 Apr 11:18:34 11:21:43 18° 95° (E) 11:24:52 437.505/2401.250
AIST 2D 26 Apr 11:19:10 11:22:36 68° 77° (ENE) 11:26:04 435.315
NANOSAT C BR1 26 Apr 11:26:30 11:30:23 37° 73° (ENE) 11:34:16 145.865
FO-29 26 Apr 11:37:37 11:42:26 22° 263° (W) 11:46:56 435.910
EO-79 26 Apr 11:53:41 11:57:55 87° 257° (WSW) 12:02:09 145.935-145.965
DUCHIFAT 1 26 Apr 11:56:07 12:00:19 80° 75° (ENE) 12:04:31 145.980
LO-87 26 Apr 12:00:22 12:03:52 56° 284° (WNW) 12:07:19 145.935 - 145.965
AO-85 26 Apr 12:03:42 12:07:51 40° 115° (ESE) 12:11:45 145.980
PCSat 26 Apr 12:29:16 12:34:37 61° 248° (WSW) 12:39:56 145.827
POLYITAN 1 26 Apr 12:33:35 12:37:12 27° 263° (W) 12:40:49 437.675
50 SAT 26 Apr 12:37:24 12:39:46 17° 96° (E) 12:42:06 437.505
SPROUT 26 Apr 12:37:31 12:41:25 35° 98° (E) 12:45:16 437.525
QB50P2 26 Apr 12:40:37 12:43:51 21° 264° (W) 12:47:05 145.880/145.840
Oscar 19 26 Apr 12:44:48 12:49:09 29° 69° (ENE) 12:53:33 437.125/150
Gurwin Techsat 1B 26 Apr 12:45:21 12:48:40 17° 65° (ENE) 12:51:58 435.225
BEESAT 3 26 Apr 12:47:32 12:50:12 18° 110° (ESE) 12:52:55 437.485
ESTCUBE 1 26 Apr 12:54:29 12:58:32 33° 288° (WNW) 13:02:35 437.505/2401.250
BUGSAT 1 26 Apr 12:59:16 13:03:21 57° 259° (W) 13:07:26 437.445
NANOSAT C BR1 26 Apr 13:04:01 13:06:11 14° 266° (W) 13:08:21 145.865
VELOX 1 26 Apr 13:08:28 13:12:55 89° 248° (WSW) 13:17:18 145.980
RS-15 26 Apr 13:15:10 13:20:12 13° 12° (NNE) 13:25:12 29.354- 29.394
UKube-1 26 Apr 13:29:02 13:32:58 35° 98° (E) 13:36:54 .
AO-85 26 Apr 13:45:41 13:48:20 16° 308° (NW) 13:50:55 145.980
DX 1 26 Apr 14:01:14 14:05:32 60° 285° (WNW) 14:09:47 434.975-435.025
YUBILEINY 26 Apr 14:09:17 14:14:03 15° 67° (ENE) 14:18:47 435.215
50 SAT 26 Apr 14:10:01 14:12:35 19° 289° (WNW) 14:15:07 437.505
ITAMSAT 1 26 Apr 14:11:31 14:14:39 16° 65° (ENE) 14:17:46 435.822/435.867
SPROUT 26 Apr 14:14:27 14:16:59 16° 292° (WNW) 14:19:30 437.525
BEESAT 2 26 Apr 14:21:51 14:25:47 90° 271° (W) 14:29:48 435.950
Gurwin Techsat 1B 26 Apr 14:22:58 14:28:07 52° 260° (W) 14:33:19 435.225
Oscar 19 26 Apr 14:24:01 14:28:21 27° 263° (W) 14:32:45 437.125/150
BEESAT 3 26 Apr 14:24:07 14:27:33 28° 305° (NW) 14:31:02 437.485
AO-7 26 Apr 14:54:39 15:02:35 53° 67° (ENE) 15:10:33 .
ITUPSAT 1 26 Apr 14:56:48 15:00:40 24° 96° (E) 15:04:31 437.325
SO-50 26 Apr 14:58:57 15:02:34 23° 53° (NE) 15:06:11 436.795
Tancredo 1 26 Apr 15:01:55 15:04:44 31° 38° (NE) 15:07:33 437.200
UKube-1 26 Apr 15:06:00 15:08:41 16° 292° (WNW) 15:11:22 .
ISS 26 Apr 15:21:34 15:24:39 39° 40° (NE) 15:27:44 437.550
RS-15 26 Apr 15:27:18 15:38:14 36° 46° (NE) 15:48:39 29.354- 29.394
MOZHAYETS 4 26 Apr 15:48:09 15:52:33 43° 99° (E) 15:56:56
ITAMSAT 1 26 Apr 15:48:35 15:53:38 51° 259° (W) 15:58:41 435.822/435.867
BEESAT 26 Apr 15:53:14 15:58:00 76° 285° (WNW) 16:02:45 436.000
YUBILEINY 26 Apr 16:03:07 16:11:55 89° 267° (W) 16:20:45 435.215
ITUPSAT 1 26 Apr 16:34:21 16:38:24 28° 290° (WNW) 16:42:28 437.325
Tancredo 1 26 Apr 16:38:28 16:40:26 16° 232° (SW) 16:42:23 437.200
SO-50 26 Apr 16:39:04 16:43:00 30° 248° (WSW) 16:46:56 436.795
CUBESAT XI-V 26 Apr 16:39:13 16:43:05 25° 96° (E) 16:46:55 437.345
AO-7 26 Apr 16:48:37 16:55:32 29° 262° (W) 17:02:30 .
JUGNU 26 Apr 16:58:16 17:01:43 16° 168° (SSE) 17:05:10 437.505
CUTE-I 26 Apr 16:58:45 17:01:00 13° 63° (ENE) 17:03:14 437.470
ISS 26 Apr 16:59:07 17:00:50 14° 233° (SW) 17:02:34 437.550
DOVE 4 26 Apr 17:12:58 17:17:34 31° 71° (ENE) 17:22:07 437.250
MOZHAYETS 4 26 Apr 17:26:38 17:29:17 15° 293° (WNW) 17:31:58
KKS-1 26 Apr 17:37:46 17:42:10 66° 285° (WNW) 17:46:32 437.445
XW-2D 26 Apr 17:38:47 17:41:58 27° 73° (ENE) 17:45:09 145.860 - 145.880
RS-15 26 Apr 17:39:34 17:51:31 67° 248° (WSW) 18:02:50 29.354- 29.394
XW-2B 26 Apr 17:45:32 17:48:52 32° 74° (ENE) 17:52:14 145.730 - 145.750
KAITUO 1B 26 Apr 17:55:13 17:58:33 33° 74° (ENE) 18:01:54 145.475/437.950
LilacSat-2 26 Apr 17:56:09 17:59:46 49° 75° (ENE) 18:03:24 437.200
XW-2C 26 Apr 17:57:09 18:00:44 47° 75° (ENE) 18:04:21 145.795 - 145.815
HO-68 26 Apr 18:00:45 18:05:16 18° 60° (ENE) 18:09:47 435.675
YUBILEINY 26 Apr 18:03:25 18:07:23 14° 281° (WNW) 18:11:23 435.215
STARS 26 Apr 18:09:39 18:13:59 69° 284° (WNW) 18:18:18 437.465
CUBESAT XI-V 26 Apr 18:16:24 18:20:21 27° 289° (WNW) 18:24:14 437.345
XW-2F 26 Apr 18:22:33 18:26:15 75° 259° (WSW) 18:29:59 145.980 - 146.000
NUDT-PHONESAT 26 Apr 18:34:10 18:37:47 64° 259° (W) 18:41:26 437.300
CUTE-I 26 Apr 18:35:03 18:40:23 70° 258° (WSW) 18:45:43 437.470
NO-84 26 Apr 18:36:20 18:39:55 35° 128° (SE) 18:43:14 435.350 FM
CUTE 1.7 + AOD 2 26 Apr 18:39:34 18:42:27 18° 69° (ENE) 18:45:22 437.475
XW-2A 26 Apr 18:45:16 18:47:36 18° 71° (ENE) 18:49:55 145.665 - 145.685
JUGNU 26 Apr 18:45:42 18:50:03 21° 178° (S) 18:54:24 437.505
DOVE 4 26 Apr 18:50:38 18:55:07 28° 264° (W) 18:59:35 437.250
STRAND 1 26 Apr 18:52:57 18:54:36 11° 92° (E) 18:56:14 437.568
SEEDS 26 Apr 18:59:24 19:02:25 20° 70° (ENE) 19:05:27 437.485
XW-2D 26 Apr 19:14:04 19:16:09 14° 266° (W) 19:18:14 145.860 - 145.880
M-CUBED/EXP-1 PRIME 26 Apr 19:16:03 19:17:14 11° 95° (E) 19:18:25 437.505
XW-2B 26 Apr 19:21:38 19:23:08 12° 267° (W) 19:24:39 145.730 - 145.750
O/OREOS (USA 219) 26 Apr 19:29:04 19:31:49 16° 60° (ENE) 19:34:32 437.305
KAITUO 1B 26 Apr 19:31:31 19:32:39 11° 267° (W) 19:33:46 145.475/437.950
UWE-3 26 Apr 19:31:55 19:35:00 20° 70° (ENE) 19:38:03 435.000/436.395/437.385
CUBEBUG 2 26 Apr 19:43:55 19:48:10 48° 75° (ENE) 19:52:17 437.445
HO-68 26 Apr 19:45:03 19:52:11 75° 256° (WSW) 19:59:22 435.675
RS-15 26 Apr 20:00:11 20:01:28 10° 265° (W) 20:02:45 29.354- 29.394
AAUSAT CUBESAT 2 26 Apr 20:05:57 20:10:00 58° 76° (ENE) 20:14:06 437.432
SRMSAT 26 Apr 20:08:38 20:12:38 18° 171° (S) 20:16:39 437.500
CUTE 1.7 + AOD 2 26 Apr 20:14:23 20:18:02 29° 263° (W) 20:21:43 437.475
NO-84 26 Apr 20:14:45 20:17:31 19° 319° (NW) 20:20:06 435.350 FM
XW-2A 26 Apr 20:17:56 20:20:13 17° 264° (W) 20:22:30 145.665 - 145.685
ZACube-1 26 Apr 20:26:06 20:30:09 47° 75° (ENE) 20:34:09 437.345
STRAND 1 26 Apr 20:29:04 20:34:07 64° 285° (WNW) 20:39:09 437.568
AO-73 26 Apr 20:32:54 20:36:58 51° 75° (ENE) 20:40:59 145.935
SEEDS 26 Apr 20:34:23 20:37:54 26° 264° (W) 20:41:27 437.485
JUGNU 26 Apr 20:34:28 20:38:26 18° 188° (S) 20:42:23 437.505
AO-85 26 Apr 20:40:16 20:41:35 11° 50° (NE) 20:42:56 145.980
Oscar 11 26 Apr 20:48:05 20:52:20 67° 76° (ENE) 20:56:37 .
M-CUBED/EXP-1 PRIME 26 Apr 20:48:05 20:51:57 41° 292° (WNW) 20:55:31 437.505
DELFI C3 26 Apr 20:50:45 20:53:20 17° 69° (ENE) 20:55:55 145.870
O/OREOS (USA 219) 26 Apr 21:07:05 21:11:24 42° 256° (WSW) 21:15:39 437.305
UWE-3 26 Apr 21:07:36 21:11:16 27° 263° (W) 21:14:52 435.000/436.395/437.385
CUBEBUG 2 26 Apr 21:23:36 21:24:56 11° 267° (W) 21:26:15 437.445
OBJECT BX 26 Apr 21:29:05 21:32:24 35° 74° (ENE) 21:35:45 145.990 - 145.960
SRMSAT 26 Apr 21:56:45 22:01:10 21° 182° (S) 22:05:36 437.500
PRISM 26 Apr 22:00:41 22:04:29 34° 99° (E) 22:08:14 437.425
ZACube-1 26 Apr 22:05:53 22:06:37 10° 267° (W) 22:07:22 437.345
TIGRISAT 26 Apr 22:15:09 22:18:54 29° 97° (E) 22:22:41 435.000
ESTCUBE 1 26 Apr 22:16:15 22:17:25 11° 65° (ENE) 22:18:34 437.505/2401.250
AO-85 26 Apr 22:18:17 22:22:14 57° 244° (WSW) 22:26:24 145.980
DELFI C3 26 Apr 22:24:26 22:27:50 28° 263° (W) 22:31:18 145.870
LO-87 26 Apr 22:32:34 22:35:40 27° 73° (ENE) 22:38:46 145.935 - 145.965
UNISAT 6 26 Apr 22:36:02 22:40:17 58° 101° (E) 22:44:35 437.425
BEESAT 3 26 Apr 22:44:01 22:47:50 41° 58° (ENE) 22:51:35 437.485
BEESAT 2 26 Apr 22:44:14 22:46:48 16° 51° (NE) 22:49:22 435.950
FO-29 26 Apr 22:48:38 22:53:48 55° 101° (E) 22:59:23 435.910
OBJECT BX 26 Apr 23:05:47 23:06:11 10° 267° (W) 23:06:36 145.990 - 145.960
SPROUT 26 Apr 23:27:50 23:30:35 17° 69° (ENE) 23:33:19 437.525
PRISM 26 Apr 23:37:02 23:39:25 15° 292° (WNW) 23:41:47 437.425
EO-79 26 Apr 23:43:06 23:46:11 20° 96° (E) 23:49:15 145.935-145.965
DUCHIFAT 1 26 Apr 23:45:09 23:47:51 17° 95° (E) 23:50:32 145.980
SRMSAT 26 Apr 23:46:07 23:49:42 16° 192° (SSW) 23:53:15 437.500
ESTCUBE 1 26 Apr 23:49:13 23:53:39 59° 259° (W) 23:58:07 437.505/2401.250
TIGRISAT 26 Apr 23:52:21 23:55:22 19° 290° (WNW) 23:58:25 435.000
VELOX 1 27 Apr 00:01:24 00:05:39 47° 74° (ENE) 00:09:56 145.980
LO-87 27 Apr 00:07:12 00:09:05 14° 266° (W) 00:11:00 145.935 - 145.965
UKube-1 27 Apr 00:20:15 00:23:15 19° 68° (ENE) 00:26:15 .
BEESAT 2 27 Apr 00:20:56 00:24:42 37° 247° (WSW) 00:28:24 435.950
AIST 2D 27 Apr 00:21:07 00:24:32 50° 285° (WNW) 00:27:58 435.315
POLYITAN 1 27 Apr 00:21:31 00:25:41 61° 101° (E) 00:29:50 437.675
BEESAT 3 27 Apr 00:23:18 00:24:59 12° 252° (WSW) 00:26:40 437.485
